Wind_Speed
38 36 35 38 31 30 25 27 23 22 22 20 20 18 18 17 13 14 14 13 14 15 13 13 13 13 11 12 15 18 15 7 2 7 9 11 13 12 11 11 11 9 8
36 36 35 30 30 31 25 26 23 22 20 18 17 16 15 16 15 15 14 13 14 12 11 12 12 14 17 16 14 13 15 13 13 11 13 10 12 10 12 10 11 13 10
27 27 26 25 28 31 30 29 27 25 24 21 20 19 17 15 17 14 14 13 13 13 13 13 14 15 15 15 18 18 17 17 16 15 8 10 12 14 13 14 15 16 14
23 27 30 31 33 30 30 28 28 28 25 23 21 19 17 17 16 15 13 13 13 13 12 13 13 14 15 14 14 14 14 14 14 13 12 9 12 14 17 18 16 17 15
10 23 26 24 23 32 33 29 26 26 25 24 20 18 18 17 17 19 17 13 12 13 12 13 15 15 14 15 14 13 14 15 13 13 12 7 10 9 14 17 18 19 15
23 17 22 29 32 44 30 25 26 24 23 22 21 19 18 18 18 22 18 17 14 14 14 13 12 13 16 13 15 13 12 14 15 14 15 10 11 15 17 19 16 10 5
5 11 15 26 30 48 31 4 13 19 21 19 18 19 18 17 9 20 20 15 11 16 17 13 13 15 20 17 16 17 19 19 18 13 15 13 14 18 17 19 21 18 12
18 11 6 8 10 10 39 29 24 24 22 19 17 17 17 16 16 15 14 16 16 15 13 13 18 16 9 16 15 15 15 15 19 22 21 17 16 15 17 17 23 24 17
22 19 10 2 13 29 40 34 32 25 22 18 17 18 19 16 18 17 14 13 15 15 16 17 14 13 13 16 14 16 16 16 14 15 13 17 16 14 13 13 18 16 9
18 15 12 5 4 8 5 10 17 20 17 16 18 17 17 14 10 16 15 12 16 16 18 20 21 22 18 16 21 21 18 17 17 18 19 19 20 15 15 18 21 20 13
12 13 14 13 10 11 13 12 13 11 9 10 18 18 15 14 13 13 14 16 16 15 15 13 19 21 23 25 24 23 24 22 19 21 20 20 19 18 19 23 23 27 22
6 8 12 11 9 12 15 16 9 8 11 15 40 17 4 7 10 12 14 16 15 19 19 18 19 19 14 11 25 31 26 25 24 20 20 19 20 22 23 23 26 29 28
9 10 10 9 13 11 11 14 12 16 14 10 10 19 12 11 10 5 1 8 16 21 23 17 18 21 23 25 24 20 26 30 26 24 24 22 24 23 21 25 24 26 30
9 8 9 12 15 13 14 16 16 17 14 11 8 8 10 10 7 7 8 11 11 11 15 20 25 24 20 21 24 25 25 31 31 28 27 28 24 23 25 25 24 24 24
8 8 10 13 13 11 11 13 11 9 9 7 6 5 5 5 9 12 14 18 17 16 20 14 13 10 14 14 16 20 23 25 29 29 30 27 27 28 30 25 24 23 23
12 12 11 11 11 12 10 6 4 4 2 4 3 3 4 5 9 11 16 23 17 15 14 15 14 11 15 14 16 19 22 24 28 28 19 21 19 20 23 25 27 26 24
11 11 12 11 9 7 10 12 10 6 9 9 6 2 2 5 7 10 18 20 13 10 8 12 13 12 13 14 16 16 18 17 19 20 19 18 15 6 7 8 18 24 23
10 14 11 10 10 12 11 10 11 17 11 7 3 4 5 6 8 10 20 15 10 10 9 11 10 9 8 12 13 14 10 11 16 16 15 14 16 14 11 11 11 13 19
14 12 11 11 12 13 15 18 17 19 19 5 6 2 4 11 5 8 17 15 11 10 12 12 9 9 11 12 12 11 11 10 11 11 11 11 9 8 8 7 7 8 11
13 13 7 10 9 10 14 15 14 9 9 12 6 7 4 7 4 7 9 12 13 14 15 14 12 11 10 10 9 11 8 7 6 7 7 8 6 7 10 11 11 14 15
16 15 14 10 11 15 11 7 9 13 15 8 13 6 5 4 5 5 6 9 12 13 13 13 14 14 11 10 10 11 12 10 8 8 8 9 12 13 15 18 16 16 18
16 13 13 14 14 16 16 18 12 13 8 6 10 9 11 7 5 4 5 7 9 11 11 14 17 19 17 17 17 18 17 16 14 14 14 15 16 15 15 14 15 14 17
14 7 6 9 14 15 12 11 10 11 11 6 5 3 10 8 6 5 6 5 7 9 9 8 7 14 16 15 13 11 13 14 14 15 16 15 13 13 14 13 12 11 10
4 6 4 6 7 9 12 12 14 12 9 9 3 3 8 7 5 5 4 3 2 5 5 7 8 10 7 8 12 11 8 8 9 9 10 11 10 13 12 10 10 10 10
11 2 5 4 4 4 5 6 7 8 6 6 5 2 6 7 7 7 5 3 1 1 1 4 6 7 7 10 8 9 8 9 9 7 6 8 10 8 12 12 10 14 12
8 4 7 7 8 7 8 5 3 4 5 5 5 5 4 5 6 5 4 4 2 1 2 3 3 5 3 1 2 6 9 7 7 3 8 7 8 8 8 11 10 10 11
Wind_Direction
195 199 201 202 198 199 196 190 196 192 188 184 188 201 210 203 214 215 213 222 230 243 244 232 221 218 221 225 228 253 263 248 236 272 272 235 220 216 224 210 232 249 265
196 199 200 198 196 195 196 188 185 185 189 190 193 195 199 200 199 210 210 216 218 226 230 220 215 205 209 219 228 229 246 244 241 242 250 236 214 220 211 216 227 225 222
194 200 197 197 193 194 194 186 181 183 186 194 198 194 197 205 201 207 214 206 206 211 212 217 216 212 215 213 221 223 231 242 235 237 238 211 201 198 207 217 222 237 246
189 201 204 200 197 194 188 184 178 183 189 195 201 197 195 199 197 196 204 207 206 207 205 208 217 214 216 219 226 236 230 227 226 225 223 197 215 218 226 222 225 231 235
230 199 214 219 218 198 181 174 182 186 191 196 192 197 195 199 204 194 190 201 205 196 196 213 218 216 215 220 221 227 231 234 231 221 217 180 187 200 215 230 228 233 226
40 61 51 16 3 341 164 170 177 190 198 196 187 198 201 201 210 202 193 192 198 210 208 209 210 210 217 204 201 209 205 218 235 242 239 197 221 233 237 223 207 191 215
40 274 353 343 358 334 344 300 190 211 208 190 194 197 208 212 187 189 197 195 199 211 216 205 206 220 222 220 225 231 233 236 240 237 239 220 225 237 233 217 206 205 211
33 64 31 106 65 247 287 295 262 230 209 190 196 207 210 208 216 200 211 219 209 230 249 232 219 234 244 211 211 216 227 239 245 238 237 234 248 259 243 236 221 216 218
41 41 26 153 214 238 245 263 261 243 221 201 199 210 214 214 221 216 212 226 216 216 233 251 250 242 242 243 230 218 218 230 240 240 237 237 247 248 239 208 200 195 202
56 56 61 41 8 358 343 280 265 251 245 219 218 215 217 214 215 213 216 221 238 223 230 236 242 241 244 239 237 230 226 233 223 209 222 233 238 239 240 233 210 198 200
75 60 49 43 31 20 22 31 53 49 25 325 263 230 223 227 225 223 232 234 255 266 253 249 241 236 235 235 238 233 226 231 237 226 232 229 230 230 220 222 225 207 204
58 97 95 68 50 28 19 16 2 310 282 342 303 225 185 228 230 230 233 247 261 265 273 275 274 289 293 262 251 246 236 232 228 231 233 216 211 210 218 226 227 226 222
38 19 12 51 66 55 42 32 22 46 99 90 9 354 354 53 56 97 189 259 258 263 266 267 275 281 285 290 287 270 251 243 230 228 226 232 219 218 217 223 228 229 228
22 5 5 23 30 23 42 48 39 34 27 41 43 20 348 343 354 8 353 321 297 297 278 270 269 272 275 276 270 267 254 245 233 231 223 227 229 220 217 210 206 212 220
5 354 8 6 9 12 15 19 33 29 40 45 48 19 349 325 352 346 343 325 303 275 266 271 273 262 274 278 273 267 260 257 247 244 220 225 236 233 226 222 216 206 213
339 16 2 342 342 340 343 332 291 251 34 87 114 151 238 2 359 346 333 331 313 283 269 248 245 251 259 267 271 273 264 254 249 240 225 222 250 239 236 236 233 213 217
335 333 341 328 314 291 297 287 300 287 230 214 208 240 344 351 335 347 350 349 350 337 258 247 248 237 247 256 257 258 268 261 230 223 208 227 226 229 311 316 239 227 225
328 308 278 290 313 331 348 344 328 309 283 238 239 258 279 318 353 12 3 7 342 335 318 283 300 339 296 270 267 270 249 219 220 220 220 218 230 245 243 252 252 251 256
317 310 316 323 316 305 306 294 283 270 277 242 133 158 309 329 12 17 19 18 360 4 17 11 8 344 327 324 299 292 277 219 234 221 220 226 216 220 222 202 151 126 151
306 298 261 276 285 271 274 271 271 296 315 296 115 66 37 348 75 51 36 35 36 42 49 49 36 25 4 347 299 257 250 250 232 213 196 185 177 181 176 165 158 142 127
325 321 297 284 319 337 335 319 310 294 286 142 112 87 64 67 74 45 38 50 49 44 46 48 45 43 49 56 67 83 90 88 97 109 121 141 153 147 140 133 129 132 133
303 310 353 348 355 342 345 323 1 2 44 59 125 96 91 78 87 84 54 52 78 69 62 55 64 70 71 81 85 89 90 92 102 105 105 115 124 129 132 134 137 134 132
295 313 3 344 327 329 327 349 357 10 348 350 40 93 132 106 107 101 87 82 69 52 49 59 78 90 87 86 89 90 93 98 100 102 103 115 118 126 130 134 143 148 142
353 46 345 322 314 329 12 349 344 339 329 322 325 268 136 121 133 130 126 122 74 51 65 73 77 91 88 90 110 110 115 122 102 120 129 138 147 154 160 163 166 147 140
279 301 319 11 325 304 325 331 321 303 297 307 286 187 148 164 192 177 180 196 204 70 69 71 83 94 89 99 124 137 138 142 142 180 181 170 159 170 166 160 160 151 151
341 356 310 242 230 241 203 205 302 294 273 271 275 224 209 198 196 197 218 207 199 202 163 127 117 119 108 304 149 144 157 154 168 130 134 164 160 184 176 160 156 159 149
Height
690 696 703 709 714 721 726 729 735 737 741 744 747 750 754 756 759 761 762 764 766 768 770 771 773 774 776 776 777 780 784 786 786 789 794 796 798 799 799 802 802 804 805
681 689 697 706 713 718 722 726 731 735 739 743 744 746 748 751 754 758 758 758 759 764 767 769 770 771 773 776 777 776 778 781 784 788 790 793 794 795 797 798 799 801 803
682 692 702 707 710 712 713 717 721 728 734 739 740 740 744 747 748 751 755 754 755 758 762 765 767 770 772 774 775 777 778 780 782 784 786 789 790 792 794 795 796 798 799
682 690 696 698 701 706 709 713 715 719 725 731 735 737 738 741 744 746 750 753 753 755 758 760 762 764 767 771 773 775 777 778 781 782 784 785 787 789 791 792 793 794 796
682 687 696 705 706 699 698 703 715 719 719 725 730 735 734 736 739 740 743 747 752 752 752 756 759 760 761 764 768 771 773 776 778 779 780 782 783 786 787 788 790 791 792
699 701 705 704 710 702 678 703 706 718 720 721 724 733 734 732 733 738 740 739 745 751 750 750 753 756 759 759 761 765 769 771 774 776 777 777 779 780 782 784 786 788 790
702 693 698 702 698 678 675 713 708 721 721 719 724 728 734 732 730 735 738 736 738 743 747 747 749 752 751 754 758 760 762 764 767 769 771 772 773 773 776 779 780 782 783
681 691 694 702 690 719 706 695 717 720 718 714 720 727 730 730 732 733 736 739 734 737 744 745 744 747 750 751 752 755 757 759 761 763 764 767 768 769 770 772 774 777 781
691 693 709 712 723 728 726 716 715 714 713 712 719 725 728 727 730 731 734 738 736 733 737 741 741 743 745 748 750 751 751 752 755 757 759 762 764 765 766 769 772 776 776
707 709 715 719 718 724 721 714 713 711 709 712 717 720 723 723 725 729 732 735 737 733 732 735 739 739 740 742 744 747 748 750 752 752 753 755 757 760 762 764 765 770 773
718 718 713 713 720 719 715 709 706 706 709 713 719 719 719 721 722 726 730 731 733 731 730 727 731 732 733 735 737 741 741 744 746 748 749 749 751 754 756 759 762 764 766
727 725 721 719 718 715 711 709 709 709 704 706 689 708 712 716 719 721 724 727 727 729 728 725 727 728 729 731 733 734 736 738 740 743 746 746 747 746 747 750 754 758 760
732 729 727 723 719 716 717 717 715 707 703 709 706 718 719 722 720 718 720 723 725 724 725 722 722 724 724 725 727 730 732 733 733 734 736 738 739 742 743 744 748 752 754
728 727 725 723 717 717 717 711 707 709 711 713 716 721 724 726 724 721 717 720 721 720 720 716 717 719 719 720 720 721 722 722 723 725 726 728 732 734 736 738 741 746 749
726 724 721 716 716 716 714 710 713 718 720 718 717 722 725 727 721 719 717 717 716 714 716 711 714 713 714 715 715 715 716 715 716 715 717 721 725 728 730 733 736 739 742
730 726 725 723 722 720 720 721 723 723 717 717 721 725 725 719 719 718 718 712 707 706 707 706 709 708 709 709 709 710 708 707 707 709 706 711 720 724 725 728 731 732 734
728 727 725 724 724 724 722 721 720 719 719 721 722 721 720 720 717 714 712 708 704 703 705 704 703 701 703 704 704 704 702 700 701 705 705 711 716 718 721 724 725 726 726
727 726 724 722 721 720 717 716 714 715 711 712 712 713 717 717 715 714 710 705 708 707 704 702 700 698 699 699 700 700 700 698 700 703 705 707 711 715 717 719 721 722 724
725 723 721 721 720 718 714 714 713 712 709 707 709 710 713 714 714 716 713 711 710 707 701 699 699 699 698 698 698 698 699 698 699 701 702 706 707 711 715 719 719 722 720
724 722 720 719 717 715 713 711 710 708 706 704 709 712 715 716 716 717 715 714 712 707 701 698 698 697 697 697 697 698 697 699 699 700 701 702 706 710 714 717 720 721 724
723 718 716 716 715 713 711 709 709 707 704 704 709 715 717 716 716 716 714 711 709 707 705 703 701 699 699 698 700 699 697 700 700 701 705 705 705 710 715 718 721 723 723
721 719 718 718 717 715 714 712 709 708 709 708 710 714 713 715 715 718 716 713 711 710 709 709 708 707 705 704 704 703 705 705 706 707 708 709 712 714 716 721 723 727 726
720 718 718 718 716 715 713 712 711 711 710 709 710 711 712 715 716 716 715 716 714 713 715 714 712 709 707 707 708 711 710 711 712 713 713 715 717 721 721 725 726 728 729
720 719 718 716 716 715 714 712 712 710 710 709 710 711 711 714 717 716 717 718 718 716 716 718 716 714 713 712 709 712 713 714 715 716 716 717 721 719 725 727 729 728 731
715 715 716 716 717 718 718 717 717 715 714 714 713 713 712 715 716 717 719 719 718 718 719 719 715 715 715 714 714 714 715 714 712 717 718 721 721 724 726 726 727 727 732
715 714 715 715 714 714 715 716 717 716 714 714 712 713 713 715 715 716 716 715 716 718 717 716 717 715 714 717 715 714 715 717 716 716 717 720 722 722 723 724 726 729 733